weather.gov     
National Weather Service

Terminal Aerodrome Forecast
NWS Homepage
This page is being discontinued on March 12, 2014.
The same data is available at this site. Please update your bookmarks.
Thank you, and we apologize for the inconvenience.
Please send an email to SR-SRH.Webmaster@noaa.gov with any concerns.


Current Version
Previous Version:    01  02  03  04  05  06  07  08  09  10  11  12  13  14  15  16  17  18  19  20  21  22  23  24  25  
[Printable]
549
FTUS42 KJAX 011721
TAFCRG
TAF
KCRG 011721Z 0118/0218 17012G20KT P6SM SCT250
     FM012300 18009KT P6SM BKN250
     FM020700 20012KT P6SM SCT050 BKN100
     FM021200 22014G22KT P6SM -SHRA BKN040
     FM021500 24015G25KT 4SM -SHRA BR OVC020=




549
FTUS42 KJAX 011721
TAFCRG
TAF
KCRG 011721Z 0118/0218 17012G20KT P6SM SCT250
     FM012300 18009KT P6SM BKN250
     FM020700 20012KT P6SM SCT050 BKN100
     FM021200 22014G22KT P6SM -SHRA BKN040
     FM021500 24015G25KT 4SM -SHRA BR OVC020=


U.S. Dept. of Commerce
NOAA National Weather Service
1325 East West Highway
Silver Spring, MD 20910
E-mail: w-nws.webmaster@noaa.gov
Page last modified: May 16, 2007
NATIONAL WEATHER SERVICE: for Safety, for Work, for Fun - FOR LIFE